www.pogodaiklimat.ru

Погода и климат >> Архив погоды >> Австралия >> Западная Австралия >> Лавертон


ПОГОДА в Лавертоне

  • Прогноз погоды в Лавертоне
  • Монитор погоды в Лавертоне

АРХИВ ПОГОДЫ в Лавертоне

Время (UTC), дата Ветер
(напр.,м/с)
 
Видим.   Явления Облачность Т
(С)
Тd
(С)
f
(%)
Тe
(С)
Тes
(С)
Комфортность P
(гПа)
Po
(гПа)
Тmin
(С)
Tmax
(С)
R
(мм)
R24
(мм)
S
(см)
10 12.06 З 2 н/о н/о +13.1 +3.2 51 +13 +13 1022.0 967.3
12 12.06 З 2 н/о н/о +10.0 +3.3 63 +9 +9 1023.3 968.5
13 12.06 З 2 н/о н/о +9.1 +3.7 69 +8 +8 1023.4 968.6 +17.4
15 12.06 ЮВ 2 н/о н/о +8.6 +4.2 74 +7 +7 1023.2 968.4
16 12.06 штиль 0 н/о н/о +7.5 +4.1 79 +7 +7 1023.2 968.4
18 12.06 штиль 0 н/о н/о +6.5 +3.7 82 +6 +6 1023.0 968.2
19 12.06 штиль 0 н/о н/о +6.9 +4.2 83 +6 +6 1022.8 968.0
21 12.06 штиль 0 н/о н/о +8.4 +5.2 80 +8 +8 1022.8 968.0
22 12.06 штиль 0 н/о н/о +8.5 +4.7 77 +8 +8 1023.4 968.6
00 13.06 С 2 н/о н/о +9.9 +5.7 75 +9 +9 1024.7 969.8
01 13.06 С 2 н/о н/о +12.0 +6.1 67 +12 +12 1025.1 970.2 +6.0
03 13.06 З 4 н/о н/о +14.0 +5.6 57 +13 +13 1025.1 970.2
04 13.06 З 4 н/о н/о +14.2 +5.0 54 +13 +13 1024.2 969.4
06 13.06 З 4 н/о н/о +15.2 +2.7 43 +14 +14 1022.4 967.7
07 13.06 СЗ 3 н/о н/о +15.3 +2.5 42 +15 +15 1022.0 967.3
09 13.06 ЮЗ 3 н/о н/о +14.9 +3.1 45 +14 +14 1022.7 967.9
10 13.06 ЮЗ 3 н/о н/о +12.9 +3.0 51 +12 +12 1023.5 968.7
12 13.06 штиль 0 н/о н/о +7.8 +2.9 71 +7 +7 1024.1 969.3
13 13.06 ЮВ 1 н/о н/о +6.5 +2.4 75 +6 +6 1024.3 969.5 +15.9
15 13.06 В 3 н/о н/о +5.6 +1.9 77 +3 +3 1024.1 969.3
16 13.06 штиль 0 н/о н/о +4.1 +1.6 84 +3 +3 1024.1 969.3
18 13.06 штиль 0 н/о н/о +3.1 +0.7 84 +2 +2 1023.8 969.0
19 13.06 СВ 2 н/о н/о +2.4 +0.6 88 -0 -0 1023.4 968.6
21 13.06 штиль 0 н/о н/о +2.4 +0.6 88 +1 +1 1023.6 968.8
22 13.06 штиль 0 н/о н/о +1.8 +0.3 90 +1 +1 1024.1 969.3
00 14.06 штиль 0 н/о н/о +6.7 +2.6 75 +6 +6 1024.9 970.0
01 14.06 В 2 н/о н/о +11.8 +3.8 58 +11 +11 1025.0 970.1 +1.7
03 14.06 С 2 н/о н/о +15.9 +3.0 42 +16 +16 1024.0 969.2
04 14.06 Ю 3 н/о н/о +16.0 +2.8 41 +16 +16 1023.1 968.3
06 14.06 З 3 н/о н/о +17.3 +2.1 36 +17 +17 1021.4 966.7
07 14.06 З 3 н/о н/о +17.4 +2.2 36 +17 +17 1021.6 966.9
09 14.06 Ю 4 н/о н/о +15.8 +1.9 39 +15 +15 1021.7 967.0
10 14.06 ЮВ 3 н/о н/о +13.4 +1.7 45 +12 +12 1022.1 967.4
12 14.06 Ю 3 н/о н/о +9.9 +1.5 56 +8 +8 1023.3 968.5
13 14.06 ЮВ 3 н/о н/о +8.7 +1.4 60 +7 +7 1023.3 968.5 +18.1
15 14.06 штиль 0 н/о н/о +6.3 +1.0 69 +6 +6 1023.1 968.3
16 14.06 штиль 0 н/о н/о +6.1 +1.2 71 +5 +5 1023.2 968.4
18 14.06 СВ 2 н/о н/о +4.1 +0.1 75 +2 +2 1022.9 968.1
19 14.06 штиль 0 н/о н/о +4.1 +0.4 77 +3 +3 1023.1 968.3
21 14.06 штиль 0 н/о н/о +2.8 0.0 82 +2 +2 1023.4 968.6
22 14.06 штиль 0 н/о н/о +3.2 +0.3 81 +2 +2 1023.9 969.1
00 15.06 штиль 0 н/о н/о +6.9 +2.0 71 +6 +6 1024.8 969.9
01 15.06 ЮЗ 2 н/о н/о +10.8 +2.6 57 +10 +10 1025.4 970.5 +2.7
03 15.06 ЮЗ 4 н/о н/о +16.1 +3.9 44 +16 +16 1025.2 970.3
04 15.06 ЮЗ 3 н/о н/о +17.0 +4.0 42 +17 +17 1024.2 969.4
06 15.06 З 5 н/о н/о +18.2 +4.0 39 +18 +18 1023.0 968.2
07 15.06 Ю 5 н/о н/о +18.4 +3.8 38 +18 +18 1023.0 968.2
09 15.06 Ю 4 н/о н/о +17.0 +5.0 45 +17 +17 1023.4 968.6
10 15.06 ЮЗ 3 н/о н/о +14.8 +4.8 51 +14 +14 1023.9 969.1
12 15.06 Ю 3 н/о н/о +10.8 +4.0 63 +9 +9 1025.1 970.2
13 15.06 ЮВ 3 н/о н/о +10.2 +3.7 64 +8 +8 1025.6 970.7 +19.3
15 15.06 Ю 4 н/о н/о +9.1 +3.7 69 +7 +7 1025.7 970.8
16 15.06 ЮВ 3 н/о н/о +7.6 +3.3 74 +5 +5 1025.6 970.7
18 15.06 ЮВ 3 н/о н/о +6.3 +3.8 84 +3 +3 1025.2 970.3
19 15.06 ЮВ 2 н/о н/о +5.4 +2.9 84 +3 +3 1025.2 970.3
21 15.06 Ю 3 н/о н/о +4.2 +3.2 93 +1 +1 1025.3 970.4
22 15.06 Ю 2 н/о н/о +3.4 +2.5 94 +1 +1 1025.9 971.0
00 16.06 В 2 н/о н/о +7.4 +5.4 87 +6 +6 1027.2 972.2
01 16.06 В 4 н/о н/о +11.6 +5.9 68 +10 +10 1027.7 972.7 +2.9
03 16.06 С 3 н/о н/о +15.8 +5.7 51 +16 +16 1026.2 971.3
04 16.06 ЮЗ 2 н/о н/о +16.2 +5.5 49 +16 +16 1025.6 970.7
06 16.06 З 2 н/о н/о +17.3 +3.2 39 +18 +18 1023.9 969.1
07 16.06 З 3 н/о н/о +18.1 +3.6 38 +18 +18 1023.7 968.9
09 16.06 СЗ 2 н/о н/о +16.2 +3.3 42 +17 +17 1023.7 968.9
10 16.06 СЗ 1 н/о н/о +13.3 +2.8 49 +14 +14 1024.7 969.8
12 16.06 ЮВ 2 н/о н/о +11.9 +2.6 53 +11 +11 1025.8 970.9
13 16.06 Ю 2 н/о н/о +11.3 +2.6 55 +11 +11 1026.0 971.1 +18.4
15 16.06 В 2 н/о н/о +9.2 +2.5 63 +8 +8 1025.5 970.6
16 16.06 Ю 2 н/о н/о +8.7 +2.3 64 +8 +8 1025.5 970.6
18 16.06 Ю 3 н/о н/о +9.3 +3.1 65 +7 +7 1025.4 970.5
19 16.06 Ю 3 н/о н/о +9.0 +3.0 66 +7 +7 1025.5 970.6
21 16.06 ЮВ 2 н/о н/о +7.8 +2.9 71 +6 +6 1025.9 971.0
22 16.06 В 2 н/о н/о +7.7 +2.8 71 +6 +6 1026.2 971.3
00 17.06 ЮВ 2 н/о н/о +9.8 +3.5 65 +8 +8 1027.7 972.7
01 17.06 ЮВ 6 н/о н/о +13.1 +3.7 53 +11 +11 1028.3 973.2 +7.0
03 17.06 ЮВ 7 н/о н/о +15.4 +4.8 49 +14 +14 1027.5 972.5
04 17.06 В 7 н/о н/о +16.2 +3.9 44 +15 +15 1026.7 971.7
06 17.06 ЮВ 6 н/о н/о +17.5 +3.8 40 +17 +17 1025.2 970.3
07 17.06 ЮВ 6 н/о н/о +17.8 +2.9 37 +17 +17 1025.1 970.2
09 17.06 В 5 н/о н/о +16.3 +3.0 41 +15 +15 1025.7 970.8
10 17.06 В 4 н/о н/о +14.9 +3.4 46 +14 +14 1026.1 971.2
12 17.06 В 4 н/о н/о +12.2 +3.4 55 +11 +11 1027.0 972.0
13 17.06 В 4 н/о н/о +11.0 +3.3 59 +9 +9 1027.1 972.1 +18.4
15 17.06 В 3 н/о н/о +10.2 +3.5 63 +8 +8 1027.3 972.3
16 17.06 ЮВ 4 н/о н/о +10.2 +3.0 61 +8 +8 1027.1 972.1
18 17.06 В 3 н/о н/о +6.6 +1.7 71 +4 +4 1027.1 972.1
19 17.06 В 2 н/о н/о +5.6 +1.5 75 +3 +3 1027.1 972.1
21 17.06 В 3 н/о н/о +4.8 +1.3 78 +1 +1 1026.5 971.5
22 17.06 В 5 н/о н/о +6.7 +2.4 74 +3 +3 1027.0 972.0
00 18.06 В 6 н/о н/о +7.7 +2.8 71 +4 +4 1028.6 973.5
01 18.06 В 8 н/о н/о +9.8 +2.9 62 +6 +6 1028.8 973.7 +4.6
03 18.06 В 7 н/о н/о +13.1 +2.9 50 +11 +11 1027.3 972.3
04 18.06 СВ 6 н/о н/о +15.1 +3.3 45 +14 +14 1025.9 971.0
06 18.06 В 4 н/о н/о +15.6 +1.7 39 +15 +15 1024.0 969.2
07 18.06 В 4 н/о н/о +15.9 +1.6 38 +15 +15 1024.1 969.3
09 18.06 ЮВ 3 н/о н/о +14.9 +1.1 39 +15 +15 1024.1 969.3
10 18.06 В 2 н/о н/о +12.4 +1.1 46 +12 +12 1024.5 969.6
12 18.06 В 4 н/о н/о +9.7 +0.6 53 +8 +8 1024.7 969.8
13 18.06 В 4 н/о н/о +8.8 +0.5 56 +6 +6 1024.9 970.0 +17.0
15 18.06 В 4 н/о н/о +7.0 0.0 61 +4 +4 1024.8 969.9
16 18.06 В 5 н/о н/о +7.0 -0.2 60 +4 +4 1024.5 969.6
18 18.06 В 5 н/о н/о +5.3 -0.9 64 +1 +1 1024.3 969.5
19 18.06 В 4 н/о н/о +4.4 -1.2 67 0 0 1024.3 969.5
21 18.06 В 4 н/о н/о +3.6 -1.3 70 -1 -1 1024.0 969.2
22 18.06 В 4 н/о н/о +3.8 -1.4 69 -0 -0 1024.6 969.7
00 19.06 В 4 н/о н/о +7.7 0.0 58 +5 +5 1025.9 971.0
01 19.06 В 9 н/о н/о +10.7 +0.2 48 +7 +7 1025.7 970.8 +3.6
03 19.06 В 6 н/о н/о +14.1 +1.4 42 +12 +12 1024.8 969.9
06 19.06 В 4 н/о н/о +17.3 +1.3 34 +17 +17 1021.7 967.0
07 19.06 В 4 н/о н/о +17.6 +1.6 34 +17 +17 1021.4 966.7
09 19.06 В 5 н/о н/о +16.2 +1.1 36 +15 +15 1021.5 966.8
10 19.06 В 3 н/о н/о +13.7 +1.0 42 +13 +13 1021.9 967.2

 

Местоположение метеостанции Лавертон (Западная Австралия, Австралия): широта -28.61 долгота 122.41 высота над уровнем моря 465 м.

В архиве по умолчанию представлена погода в Лавертоне за последнюю неделю. Архивные данные за месяц целиком и за предыдущие месяцы, начиная с января 2011 года, Вы можете получить, выбрав интересующий диапазон дат из раскрывающегося списка и нажав кнопку "Ввод!".


*Определитесь, кто Вы:
робот инопланетянин человек

Внимание! Время в таблицах - всемирное. Для получения местного времени необходимо прибавить поправку, которая равна 8 ч.

Смотрите также архив погоды в соседних городах и на ближайших метеорологических станциях:

Погода в Леонора аэропорту (Западная Австралия, Австралия) (110 км)
Погода в Леинстере (Западная Австралия, Австралия) (188 км)
Погода в Калгурли-Боулдере (Западная Австралия, Австралия) (259 км)
Погода в Норсмане (Западная Австралия, Австралия) (406 км)
Погода в Саутерн Кросс (Западная Австралия, Австралия) (415 км)
Погода в Микатарре (Западная Австралия, Австралия) (441 км)
Погода в Маунт Магнет аэропорту (Западная Австралия, Австралия) (452 км)
Погода в Салмон Гамс (Западная Австралия, Австралия) (492 км)
Погода в Уорбертоне (Западная Австралия, Австралия) (496 км)
Погода в Эсперансе (Западная Австралия, Австралия) (567 км)

Пояснения к столбцам:

Ветер - указаны скорость ветра в м/с - средняя за 10 мин, порывы в срок и между сроками (в фигурных скобках) и направление, откуда дует ветер: С - северный, СВ - северо-восточный, В - восточный, ЮВ - юго-восточный, Ю - южный, ЮЗ - юго-западный, З - западный, СЗ - северо-западный.
Видимость - горизонтальная дальность видимости в метрах или километрах. При видимости от 1 до 10 км при отсутствии осадков обычно наблюдается дымка, при ухудшении видимости до 1 км и менее - туман. В сухую погоду видимость может ухудшаться дымом, пылью или мглою.
Явления - указаны атмосферные явления, наблюдавшиеся в срок или в последний час перед сроком; фигурными скобками обозначены явления, наблюдавшиеся между сроками (за 1-3 часа до срока); квадратными скобками обозначены град или гололедные отложения с указанием их диаметра в мм.
Облачность - указаны через наклонную черту общая и нижняя облачность в баллах и высота нижней границы облаков в метрах; квадратными скобками обозначены формы облаков: Ci - перистые, Cs - перисто-слоистые, Cc - перисто-кучевые, Ac - высококучевые, As - высокослоистые, Sc - слоисто-кучевые, Ns - слоисто-дождевые, Cu - кучевые, Cb - кучево-дождевые. Подробнее классификацию облаков см. в Атласе облаков (PDF).
T - Температура воздуха - температура, измеренная на высоте 2 м над землей.
Td - Температура точки росы - температура, при понижении до которой содержащийся в воздухе водяной пар достигнет насыщения.
f - Относительная влажность воздуха - влажноcть воздуха, измеренная на высоте 2 м над землей.
Te - Эффективная температура - температура, которую ощущает одетый по сезону человек в тени. Характеристика душности погоды. При расчете учитывается влияние влажности воздуха и скорости ветра на теплоощущения человека.
Tes - Эффективная температура на солнце - температура, которую ощущает человек, с поправкой на солнечный нагрев. Характеристика знойности погоды. Зависит от высоты солнца над горизонтом, облачности и скорости ветра. Ночью, в пасмурную погоду, а также при ветре 12 м/с и более поправка равна нулю.
P - Атмосферное давление - приведенное к уровню моря атмосферное давление.
Po - Атмосферное давление - измеренное на уровне метеостанции атмосферное давление.
Tmin - Минимальная температура - минимум температуры воздуха на высоте 2 м над землей.
Tmax - Максимальная температура - максимум температуры воздуха на высоте 2 м над землей.
R - Количество осадков - Количество выпавших осадков за период времени, мм. При наведении курсора мыши на число - период времени, за который выпало указанное количество осадков.
R24 - Количество осадков - Количество выпавших осадков за 24 часа, мм.
S - Снежный покров - Высота снежного покрова, см. При наведении курсора мыши на число - состояние снежного покрова и степень покрытия местности в баллах.